COSMOS 2460 (732)

Last updated on Tue Dec 03 2024 00:03:11 GMT+0000 (Coordinated Universal Time)

1 36402U 10007C 24337.60165287 -.00000032 00000+0 00000+0 0 9991 2 36402 65.7210 333.4046 0002971 272.4174 198.6507 2.13106221114760
UTC large
Height (km)
Speed (km/s)
/
Latitude / Longitude
Inclination (degrees)
Orbital Period (minutes)
Azimuth
Elevation
Range (km)
Doppler Factor

Next 0 passes for location: London (51.5072 / 0.1276)

Sorry there are no passes over London.